Regional Weather Roundup
Issued by NWS

Home | Current Version | Previous Version | Graphics & Text | Print | Product List | Glossary On
Versions: 1 2 3 4 5 6 7 8 9 10 11 12 13 14 15 16 17 18 19 20 21 22 23 24 25 26 27 28 29 30 31 32 33 34 35 36 37 38 39 40 41 42 43 44 45 46 47 48 49 50
000
ASUS45 KABQ 260210
RWRNM
NEW MEXICO REGIONAL WEATHER ROUNDUP
NATIONAL WEATHER SERVICE ALBUQUERQUE NM
800 PM MDT MON MAY 25 2015

NOTE: "FAIR" MEANS FEW OR NO CLOUDS BELOW 12,000 FEET AGL WITH NO
       SIGNIFICANT WEATHER OR OBSTRUCTIONS TO VISION.

      THIS PRODUCT IS RELEASED AS TWO VERSIONS.  ONE VERSION NEAR
      THE TOP OF THE HOUR CONTAINING PRELIMINARY DATA FROM ALBUQUERQUE
      AND OTHER STATIONS.  A FINAL VERSION WITH ADDITIONAL DATA IS
      ISSUED ABOUT 10 MINUTES AFTER THE HOUR.

NMZ501-503-504-510>518-260300-
NORTHWEST PLATEAU/NORTHCENTRAL MOUNTAINS

CITY           SKY/WX    TMP DP  RH WIND       PRES   REMARKS
FARMINGTON     CLEAR     57  41  55 SW7       30.02S
LOS ALAMOS     CLOUDY    51  42  72 S7        30.11R
SANTA FE       CLOUDY    53  41  63 N15       30.05R
TAOS           MOCLDY    54  36  50 CALM      30.06R
ANGEL FIRE     FAIR      47  36  67 N6        30.11R

$$
NMZ402-403-502-505>509-260300-
WESTCENTRAL MOUNTAINS/SOUTHWEST MOUNTAINS

CITY           SKY/WX    TMP DP  RH WIND       PRES   REMARKS
GALLUP         MOCLDY    52  45  77 SW5       30.10S
GRANTS         MOCLDY    54  37  53 NW10G16   30.11R
SILVER CITY    LGT RAIN  70  27  19 W17       30.04R

$$
NMZ407-409-411-412-260300-
SOUTHERN DESERTS

CITY           SKY/WX    TMP DP  RH WIND       PRES   REMARKS
LORDSBURG      FAIR      75  28  17 W16G23    29.97R
DEMING         CLEAR     76  24  14 W14G23    29.96R
LAS CRUCES     CLEAR     76  21  13 W18       29.96R
ALAMOGORDO     MOCLDY    73  32  21 N16G25    29.92R
T OR C         PTCLDY    70  37  29 N9        29.96R

$$
NMZ519>523-260300-
CENTRAL VALLEYS/CENTRAL HIGHLANDS

CITY           SKY/WX    TMP DP  RH WIND       PRES   REMARKS
ALBUQUERQUE    CLOUDY    60  47  61 S7        30.05R
DOUBLE EAGLE   MOCLDY    55  45  67 W8        30.06R
MORIARTY ARPT  FAIR      51  45  78 S13       30.08R
CLINES CORNERS CLOUDY    48  44  86 SW18      30.06S
BELEN          CLOUDY    56  46  67 E9G18     30.04R
SOCORRO        FAIR      60  46  60 N8G21     30.03R

$$
NMZ524>526-539-540-260300-
SOUTHCENTRAL MOUNTAINS

CITY           SKY/WX    TMP DP  RH WIND       PRES   REMARKS
RUIDOSO        PTCLDY    57  32  38 NW12G18   30.09R

$$
NMZ527>531-260300-
NORTHEAST HIGHLANDS/NORTHEAST PLAINS

CITY           SKY/WX    TMP DP  RH WIND       PRES   REMARKS
LAS VEGAS      CLOUDY    55  42  61 N10       30.02R
RATON          PTCLDY    53  44  71 N3        29.99R
CLAYTON        MOCLDY    58  46  64 NW8       29.90S

$$
NMZ532>537-260300-
EASTCENTRAL PLAINS

CITY           SKY/WX    TMP DP  RH WIND       PRES   REMARKS
TUCUMCARI      CLOUDY    69  44  40 SW3       29.83R
CANNON AFB     NOT AVBL
CLOVIS AIRPORT CLEAR     63  45  51 SW10        N/A

$$
NMZ028-029-538-260300-
SOUTHEAST PLAINS

CITY           SKY/WX    TMP DP  RH WIND       PRES   REMARKS
ROSWELL        CLOUDY    76  39  26 NW17      29.88R
ARTESIA        MOCLDY    79  34  19 NW6       29.85R
CARLSBAD       CLEAR     76  32  20 W9        29.84R
HOBBS          CLEAR     68  45  42 S7        29.88R


$$



USA.gov is the U.S. government's official web portal to all federal, state and local government web resources and services.